Dewpoint
16 16 16 17 18 16 15 15 15 17 16 14 14 15 16 16 16 16 15 16 16 16 17 17 16 15 16 15 15 14 14 14 13 12 14 14 13 14 15 17 17 17 16
15 16 17 18 16 18 17 18 14 17 16 17 16 16 16 16 15 15 15 16 16 16 16 16 16 17 15 15 16 16 15 15 15 15 14 15 15 16 15 15 16 15 14
16 16 17 18 16 17 17 16 16 15 14 15 16 17 16 17 16 16 15 15 15 15 15 15 15 15 16 16 15 14 15 15 14 15 15 15 16 16 16 16 16 17 16
15 17 18 17 15 15 15 15 15 15 15 15 15 15 15 15 14 15 16 16 16 16 16 15 15 16 16 15 15 15 15 15 15 15 15 15 15 14 14 15 15 14 15
16 15 16 16 15 16 16 16 15 15 15 14 14 14 14 13 13 12 15 14 14 14 14 14 15 13 14 15 16 16 16 16 16 15 15 15 15 15 15 15 15 15 16
16 16 17 17 17 16 16 15 14 11 7 12 14 14 13 12 10 5 7 12 13 13 13 13 14 12 13 11 11 12 13 13 14 15 13 12 12 13 12 12 13 13 13
18 17 17 17 16 16 15 14 14 14 12 13 13 14 14 7 2 3 5 13 13 13 13 13 12 14 13 12 11 11 11 12 12 10 9 11 13 13 13 12 12 13 14
18 18 17 16 15 11 7 7 7 10 13 13 13 13 12 0 2 3 4 7 12 12 12 12 12 12 11 11 9 8 12 13 13 13 14 14 14 13 13 12 13 11 12
18 17 14 8 9 8 8 10 9 3 7 13 13 13 12 3 5 6 6 10 11 12 12 12 12 12 9 8 7 7 12 12 11 11 11 11 10 9 10 11 12 11 10
17 13 13 12 11 10 10 9 8 9 13 12 13 12 12 6 6 6 7 9 10 10 11 11 10 8 6 6 7 8 11 12 11 12 11 11 12 12 11 12 12 12 13
14 13 13 13 13 12 11 10 7 6 12 10 12 12 11 8 5 5 4 3 9 9 9 10 10 6 2 2 4 5 6 7 7 11 11 11 11 12 12 12 12 12 12
14 14 14 14 14 13 12 11 10 9 2 8 12 10 11 5 0 -1 -1 -2 1 8 9 9 7 -1 -2 -1 2 5 6 6 9 9 9 9 9 9 9 10 10 10 11
14 13 13 13 13 13 13 12 12 11 5 10 11 11 9 7 1 -6 -8 -6 -3 4 7 0 -2 -1 1 3 5 6 7 9 8 8 8 9 9 9 10 9 9 9 9
14 12 12 13 13 13 12 12 12 9 8 10 11 8 5 5 5 6 5 5 4 3 3 2 2 5 6 7 8 8 8 8 8 8 8 8 8 8 8 8 8 8 9
13 13 12 12 13 11 8 8 4 5 9 9 8 5 5 4 4 -4 -8 1 -2 -5 -4 7 7 7 7 6 6 5 5 5 5 5 6 6 6 6 5 6 6 6 6
14 14 13 12 12 11 10 9 7 9 9 8 5 5 4 3 -3 -6 -9 -11 -11 -8 1 6 5 5 3 3 2 1 1 1 2 2 2 2 2 2 2 3 2 3 3
14 13 13 13 12 11 10 7 8 8 6 7 4 2 1 -0 -2 -5 -8 -12 -10 -3 4 4 3 3 2 1 0 0 0 2 1 1 2 1 2 1 2 2 2 2 2
14 13 13 13 12 11 10 9 9 7 3 1 2 3 3 2 -0 -2 -5 -11 -7 -4 2 2 2 2 2 1 1 1 2 1 1 2 2 2 2 2 2 2 3 3 3
14 13 13 12 11 10 9 8 8 8 7 7 7 5 4 4 1 -1 -3 -8 4 2 1 1 1 1 2 2 3 3 3 3 2 2 2 2 2 2 2 2 2 2 2
13 13 12 11 9 8 7 7 6 6 7 7 8 8 6 5 3 2 4 3 3 1 1 1 1 1 2 3 4 4 4 4 3 2 1 1 1 1 1 1 1 1 1
13 12 10 8 7 7 6 6 5 5 6 6 6 6 7 7 5 4 3 3 3 0 1 2 1 3 3 4 4 4 4 4 3 2 0 0 1 1 1 1 1 1 1
10 9 8 6 6 6 6 6 6 5 6 5 4 4 5 5 4 2 3 3 3 2 2 3 3 3 3 3 4 4 4 3 3 2 0 0 1 1 1 1 1 1 1
9 7 7 6 5 4 4 4 4 3 3 2 2 5 4 3 1 2 3 3 3 3 3 4 3 3 3 3 3 3 3 3 2 2 0 0 1 1 1 1 1 0 0
8 7 6 6 5 4 3 3 2 1 1 2 3 2 3 3 3 2 3 2 3 3 3 3 3 3 3 4 4 3 3 3 3 1 1 1 1 1 1 1 0 0 1
7 6 6 6 5 4 3 2 2 2 2 2 2 2 2 2 3 2 2 3 3 3 3 3 3 3 4 4 4 4 3 3 3 1 1 1 1 2 3 2 1 1 2
5 4 5 6 6 6 4 2 2 3 3 2 2 2 3 2 3 3 2 2 3 3 3 3 3 3 3 4 3 4 4 3 -1 -4 -2 1 2 2 2 2 2 2 3
Wind_Speed
17 14 14 12 12 11 8 9 5 3 4 5 3 4 5 5 5 6 7 10 12 12 13 11 14 16 14 12 13 11 10 10 10 10 10 14 15 18 15 13 11 13 15
16 15 15 13 10 8 8 6 4 3 2 4 3 0 2 3 5 5 5 6 8 10 12 14 15 14 17 19 12 12 15 15 13 12 14 6 9 13 16 17 18 17 18
17 16 14 12 9 7 7 7 5 3 5 3 2 2 3 2 1 3 3 4 6 8 11 11 12 13 14 15 17 19 18 20 20 19 17 15 16 14 14 17 16 16 18
16 16 12 12 11 9 9 7 4 3 4 3 3 3 1 1 1 1 1 3 2 3 3 3 7 9 11 11 13 14 15 16 16 17 17 18 20 20 21 22 23 23 24
18 16 15 14 13 12 10 7 5 4 3 3 2 1 1 1 9 8 2 2 3 3 3 3 6 7 6 7 5 7 7 8 9 10 11 13 13 14 16 16 17 14 15
19 18 19 16 14 11 9 7 6 5 4 3 2 2 3 10 10 8 8 2 4 3 3 3 5 10 8 8 11 13 14 14 13 11 13 15 13 12 14 13 14 15 17
22 21 24 17 14 12 9 6 4 3 3 3 3 3 6 9 6 5 4 1 2 4 3 4 2 7 13 13 11 9 8 11 14 16 18 16 16 16 16 19 16 17 17
24 26 22 18 16 12 9 8 6 4 2 3 4 5 6 4 5 4 4 4 3 3 3 4 8 14 16 18 16 12 9 14 14 12 10 14 15 18 18 21 20 22 22
28 28 22 16 13 12 12 9 6 4 3 2 4 4 5 4 4 4 6 2 5 3 3 4 4 8 11 10 10 9 8 8 8 13 15 19 22 22 23 22 17 17 20
31 25 22 23 19 20 17 11 7 5 5 5 4 5 7 4 4 4 4 1 4 3 4 10 13 11 10 10 9 8 7 7 11 10 12 11 13 11 13 13 12 16 15
32 31 28 21 18 18 17 12 7 7 10 5 7 6 8 7 3 5 3 2 4 1 2 3 11 12 11 9 8 8 8 7 7 6 8 7 9 8 10 13 13 15 14
30 22 19 19 24 23 21 16 10 7 9 8 10 6 6 5 4 3 3 3 5 3 3 6 12 7 8 7 5 5 4 3 5 6 5 6 6 5 10 14 16 18 17
24 19 14 14 15 21 14 10 14 12 7 9 8 7 8 5 4 3 3 3 4 4 7 7 7 6 5 3 5 4 6 4 2 3 4 6 6 7 8 8 8 11 10
19 18 17 14 14 17 14 9 8 7 13 11 12 10 9 6 4 4 5 5 5 4 5 5 7 5 7 2 7 8 3 4 4 3 4 5 7 8 9 8 9 9 9
19 19 19 18 17 15 13 12 8 9 12 13 15 11 10 8 13 8 7 7 7 6 4 1 2 1 0 1 2 2 3 3 3 3 4 4 4 5 6 6 7 8 8
20 21 18 19 18 17 14 13 18 20 23 21 19 14 17 12 8 7 7 7 6 4 3 3 2 2 2 1 1 0 2 3 3 4 3 3 4 5 6 6 8 8 9
24 22 23 22 19 17 16 19 25 26 20 26 22 16 10 8 7 6 6 5 4 6 4 4 4 3 3 2 2 1 0 2 4 3 3 4 5 6 6 6 7 8 9
18 21 22 21 14 14 15 15 15 18 22 21 19 15 12 9 8 7 6 4 3 3 3 5 5 5 4 3 2 2 2 1 2 1 2 3 4 5 6 6 7 9 10
20 18 15 13 14 15 14 14 13 12 12 12 14 16 16 13 11 9 8 6 6 8 7 6 6 6 6 5 5 4 2 3 3 2 1 2 4 5 6 7 7 10 11
20 15 16 14 16 17 16 15 16 16 14 14 15 11 13 13 12 10 6 5 7 8 8 9 8 8 8 7 7 5 3 5 4 3 3 3 4 4 6 7 8 9 10
13 12 16 15 16 15 16 16 16 15 15 14 15 14 18 10 6 7 9 9 8 9 10 9 9 9 9 9 7 6 6 6 5 5 4 4 4 4 5 6 7 8 9
13 13 14 15 15 15 15 15 15 15 15 14 13 14 17 16 14 12 11 10 11 10 10 9 9 8 8 8 9 9 8 7 6 6 5 5 5 5 6 6 7 7 8
13 13 12 14 14 14 14 15 14 14 14 14 13 14 13 12 12 12 11 10 9 8 9 8 8 8 8 9 9 9 9 8 7 8 6 5 5 5 6 6 7 8 10
12 13 14 14 14 14 14 15 14 14 13 13 14 15 13 10 10 12 11 10 9 9 9 10 10 11 11 11 11 11 10 10 9 7 7 6 6 7 6 7 7 9 11
11 12 14 15 15 15 15 14 13 13 13 14 15 15 14 13 13 12 13 13 12 12 12 13 14 14 13 14 14 13 14 13 14 11 10 9 9 8 8 8 10 12 14
11 10 12 14 14 16 18 15 15 15 16 16 15 15 16 16 16 16 16 16 15 16 14 14 15 14 14 14 15 15 18 20 16 15 14 11 10 10 11 12 13 15 17
Wind_Direction
188 187 185 193 194 210 203 204 225 220 254 256 258 250 250 247 233 240 238 231 231 229 226 237 245 232 226 236 246 248 255 254 254 242 232 223 230 255 253 263 271 269 269
186 183 180 193 185 189 184 178 190 177 34 40 7 297 251 233 248 248 243 238 246 245 241 236 237 239 234 226 240 244 240 244 251 263 258 279 249 268 282 259 256 259 264
180 182 183 175 152 164 149 182 173 159 125 129 125 96 73 122 241 248 248 244 259 263 260 258 247 248 246 244 243 242 246 251 247 253 251 256 261 251 264 267 262 254 258
180 175 177 168 172 170 163 161 163 148 124 112 107 107 97 81 55 124 323 3 4 10 312 297 264 251 250 250 250 253 253 257 253 253 254 256 257 259 261 266 267 269 265
178 177 178 173 174 172 164 166 159 137 168 147 128 159 116 53 229 216 171 275 277 275 279 315 278 292 270 263 250 265 258 261 262 270 274 283 292 286 283 299 295 290 284
178 179 176 176 170 166 170 171 175 176 172 149 145 161 146 239 253 238 233 257 297 305 289 270 279 313 307 287 269 261 265 267 266 270 272 276 293 293 282 287 288 291 288
182 183 181 173 171 170 170 169 175 170 189 167 174 181 217 249 240 239 218 124 244 262 286 274 248 275 233 252 272 284 294 294 282 277 271 270 278 279 274 273 277 274 276
188 180 169 169 173 186 189 192 206 217 219 217 210 196 259 252 254 248 226 221 232 263 267 270 253 258 257 263 268 268 268 259 273 280 270 268 261 259 261 268 274 283 288
186 183 178 182 197 214 201 201 211 220 216 205 223 191 209 223 221 212 188 116 238 267 266 260 248 292 279 276 277 274 282 285 282 281 273 271 275 274 270 274 280 286 286
188 177 200 202 225 207 205 205 201 188 180 194 217 210 205 259 245 254 229 197 267 242 268 281 300 299 303 302 291 290 291 274 241 245 273 301 301 290 282 276 267 269 279
181 186 190 192 198 202 205 198 192 152 216 195 210 217 221 235 260 273 250 186 208 191 217 282 285 302 308 304 294 287 283 281 270 314 305 305 289 301 319 298 285 274 283
186 196 216 229 239 222 201 183 186 255 287 248 234 239 254 246 244 242 236 229 227 181 202 241 271 304 314 315 310 312 333 6 16 305 306 312 308 303 268 272 273 280 270
207 223 222 232 230 214 201 196 219 225 267 262 239 224 230 263 285 280 281 263 241 189 220 267 289 308 329 327 8 23 43 18 326 323 313 313 314 318 317 304 299 285 309
213 202 194 203 198 199 203 215 234 238 215 217 227 216 215 210 210 317 335 334 328 329 308 322 358 36 45 99 36 30 21 38 68 19 6 355 6 5 2 356 340 341 344
190 189 198 208 204 200 183 194 197 215 213 221 221 210 209 212 226 252 239 230 240 256 238 172 347 9 83 74 38 54 22 51 61 33 8 5 346 350 341 350 347 347 350
195 194 190 195 198 201 209 196 183 205 216 212 209 205 213 222 258 278 272 265 264 253 162 173 186 171 181 181 155 37 354 26 28 23 15 360 352 355 354 352 349 353 349
209 202 206 210 204 206 202 208 208 214 213 211 220 228 237 249 275 289 292 277 240 164 124 200 193 196 209 196 175 164 273 323 44 12 14 2 353 345 356 354 358 355 351
208 210 206 205 208 207 207 206 206 217 212 210 216 226 235 249 266 287 295 270 229 199 181 219 221 214 212 206 212 229 244 328 336 341 4 349 341 338 338 345 353 347 344
198 196 185 196 202 210 209 208 209 210 208 215 226 230 234 241 255 270 278 242 235 238 237 232 229 228 227 222 230 234 239 270 278 271 326 340 321 326 327 334 341 337 343
200 201 196 199 207 207 208 209 210 213 216 219 222 229 232 231 251 271 288 245 244 237 237 231 229 227 230 232 236 241 238 270 267 286 289 302 303 321 325 335 337 336 334
203 207 191 199 208 209 208 211 213 217 222 227 232 233 230 223 238 246 240 251 247 238 241 234 231 235 235 238 241 245 247 251 266 280 285 293 301 317 324 326 326 327 327
201 208 206 203 209 213 216 220 223 225 227 230 232 232 232 235 249 241 240 242 245 243 235 240 235 241 246 243 244 246 247 253 257 263 268 281 295 301 307 309 312 315 324
207 210 213 209 212 219 219 218 224 227 229 231 228 210 224 240 232 232 234 235 235 237 245 247 246 250 252 252 251 249 247 248 253 248 246 261 270 277 292 302 305 309 318
215 212 215 219 217 217 220 223 227 230 227 231 229 231 228 228 229 233 232 235 239 244 252 256 253 251 251 252 254 256 254 249 241 244 246 243 251 274 285 285 293 302 316
224 225 219 221 221 222 222 226 228 234 233 230 231 231 233 234 235 235 238 237 238 242 252 255 252 257 259 261 255 244 252 241 231 239 231 242 251 265 280 288 296 302 309
227 225 227 220 226 219 220 221 231 237 239 232 236 234 235 239 240 240 242 245 245 246 251 259 254 261 257 264 258 247 245 254 245 231 229 240 252 262 274 282 290 297 301
Height
1515 1519 1521 1523 1525 1525 1527 1528 1528 1530 1529 1529 1529 1529 1529 1531 1532 1533 1535 1536 1537 1539 1540 1542 1542 1545 1546 1548 1549 1551 1551 1550 1551 1551 1550 1551 1552 1554 1556 1555 1555 1554 1554
1515 1519 1521 1522 1524 1525 1526 1527 1528 1530 1528 1528 1528 1529 1529 1530 1530 1532 1533 1534 1535 1536 1537 1538 1539 1541 1543 1543 1545 1546 1547 1547 1548 1549 1549 1550 1551 1550 1549 1550 1551 1551 1551
1514 1518 1520 1522 1524 1525 1527 1529 1529 1528 1528 1529 1529 1530 1530 1530 1530 1531 1531 1532 1533 1534 1536 1536 1537 1537 1539 1541 1542 1543 1543 1544 1546 1547 1547 1548 1547 1547 1546 1545 1545 1546 1545
1513 1515 1520 1523 1525 1527 1528 1529 1529 1528 1528 1528 1529 1529 1531 1532 1532 1533 1532 1532 1533 1533 1533 1533 1533 1534 1534 1537 1538 1538 1539 1540 1540 1541 1542 1542 1542 1542 1542 1540 1540 1540 1538
1512 1515 1519 1522 1524 1524 1526 1527 1528 1528 1527 1527 1528 1529 1529 1532 1528 1529 1531 1532 1532 1533 1534 1534 1532 1532 1533 1534 1535 1535 1536 1536 1537 1537 1537 1538 1538 1538 1537 1537 1535 1536 1534
1512 1515 1517 1520 1522 1524 1524 1525 1525 1525 1524 1525 1527 1528 1529 1526 1526 1527 1528 1530 1530 1530 1531 1531 1531 1529 1529 1530 1531 1533 1533 1533 1534 1535 1536 1536 1535 1535 1535 1534 1532 1531 1530
1508 1511 1514 1518 1521 1522 1523 1525 1526 1526 1525 1525 1526 1527 1527 1524 1524 1524 1525 1528 1528 1528 1528 1528 1529 1525 1526 1526 1527 1528 1529 1529 1529 1529 1529 1530 1529 1530 1529 1529 1531 1529 1527
1505 1509 1512 1517 1518 1520 1520 1521 1523 1524 1525 1526 1525 1525 1523 1522 1522 1522 1523 1524 1527 1526 1526 1526 1525 1522 1522 1522 1523 1523 1525 1525 1525 1525 1526 1525 1525 1525 1525 1525 1524 1523 1522
1502 1505 1509 1512 1515 1518 1518 1520 1521 1522 1523 1525 1526 1524 1522 1521 1521 1522 1521 1523 1525 1524 1524 1523 1521 1520 1518 1518 1518 1518 1520 1520 1522 1521 1521 1520 1520 1520 1520 1520 1521 1521 1518
1497 1501 1502 1508 1512 1513 1514 1518 1519 1520 1522 1524 1525 1523 1520 1519 1520 1521 1521 1520 1524 1523 1522 1519 1518 1517 1516 1515 1515 1516 1517 1517 1516 1517 1516 1516 1515 1515 1515 1516 1516 1514 1513
1495 1497 1503 1506 1510 1511 1514 1515 1516 1515 1519 1519 1523 1522 1520 1518 1518 1519 1519 1517 1522 1522 1522 1519 1514 1514 1514 1513 1512 1512 1513 1513 1513 1513 1514 1514 1514 1513 1512 1511 1512 1511 1510
1495 1498 1501 1505 1506 1508 1508 1508 1508 1511 1514 1519 1521 1520 1520 1518 1517 1518 1518 1515 1519 1519 1520 1518 1513 1513 1512 1511 1510 1510 1510 1510 1511 1513 1513 1513 1512 1511 1507 1508 1507 1506 1506
1493 1496 1498 1500 1502 1504 1505 1506 1505 1508 1512 1520 1521 1521 1522 1517 1516 1516 1515 1515 1517 1517 1515 1513 1512 1511 1510 1509 1509 1509 1509 1511 1511 1512 1511 1509 1508 1508 1508 1504 1504 1502 1502
1490 1493 1495 1497 1499 1502 1503 1504 1504 1505 1515 1517 1519 1519 1519 1518 1518 1515 1514 1514 1514 1513 1512 1510 1510 1510 1510 1510 1509 1509 1510 1508 1508 1509 1509 1509 1507 1507 1505 1505 1504 1502 1499
1487 1490 1492 1495 1497 1500 1500 1501 1504 1508 1513 1516 1518 1517 1516 1516 1512 1512 1512 1513 1512 1511 1510 1511 1511 1511 1512 1512 1511 1511 1511 1510 1507 1508 1508 1508 1508 1507 1505 1503 1502 1501 1499
1484 1487 1490 1492 1494 1497 1499 1501 1503 1506 1509 1511 1512 1513 1513 1511 1511 1510 1509 1509 1508 1509 1509 1510 1510 1511 1511 1511 1511 1511 1511 1508 1507 1507 1507 1508 1507 1507 1503 1503 1501 1499 1498
1481 1483 1486 1489 1491 1495 1498 1499 1502 1503 1502 1506 1508 1509 1509 1509 1509 1508 1508 1507 1507 1508 1508 1509 1509 1509 1510 1510 1510 1509 1509 1508 1506 1507 1506 1506 1506 1506 1504 1501 1500 1498 1497
1477 1480 1483 1487 1490 1493 1496 1499 1499 1498 1500 1501 1503 1504 1506 1506 1506 1506 1506 1505 1506 1506 1507 1508 1509 1509 1509 1508 1508 1509 1508 1506 1506 1505 1504 1504 1505 1504 1505 1502 1499 1498 1496
1474 1477 1481 1485 1489 1492 1494 1495 1497 1498 1500 1501 1500 1501 1502 1502 1503 1504 1504 1503 1506 1506 1506 1506 1507 1508 1507 1507 1507 1507 1504 1505 1504 1505 1502 1502 1504 1504 1503 1500 1498 1497 1495
1473 1475 1478 1483 1486 1488 1490 1492 1494 1496 1497 1499 1499 1498 1497 1499 1499 1500 1500 1501 1503 1503 1504 1504 1505 1505 1505 1505 1505 1503 1502 1504 1503 1502 1501 1501 1501 1501 1500 1499 1497 1496 1495
1471 1473 1476 1480 1482 1485 1486 1488 1490 1491 1493 1494 1495 1496 1494 1495 1498 1499 1500 1500 1500 1501 1502 1501 1501 1501 1501 1501 1502 1501 1501 1501 1500 1500 1500 1500 1499 1499 1498 1497 1497 1496 1495
1470 1472 1473 1476 1478 1481 1483 1485 1486 1487 1488 1489 1491 1490 1492 1494 1495 1496 1497 1497 1498 1497 1499 1498 1497 1498 1498 1498 1499 1498 1498 1498 1497 1498 1498 1498 1498 1497 1497 1497 1496 1495 1493
1468 1469 1471 1473 1475 1477 1479 1481 1483 1484 1485 1486 1487 1485 1488 1491 1492 1492 1493 1493 1494 1494 1495 1494 1494 1494 1495 1495 1495 1495 1495 1494 1494 1494 1494 1495 1496 1496 1495 1495 1495 1494 1491
1466 1467 1468 1470 1472 1474 1476 1478 1479 1480 1481 1481 1484 1485 1485 1486 1487 1489 1490 1489 1490 1489 1491 1491 1491 1491 1492 1491 1491 1491 1491 1491 1491 1491 1491 1493 1494 1494 1493 1492 1492 1491 1489
1463 1464 1466 1467 1469 1471 1473 1474 1476 1477 1477 1478 1479 1481 1482 1483 1483 1484 1485 1485 1485 1485 1487 1488 1487 1487 1487 1486 1486 1487 1484 1486 1487 1488 1489 1490 1490 1490 1490 1489 1488 1487 1485
1460 1461 1463 1465 1465 1466 1468 1469 1470 1472 1473 1474 1476 1476 1478 1478 1479 1480 1480 1481 1481 1481 1481 1482 1482 1481 1481 1482 1482 1482 1482 1482 1483 1484 1485 1486 1486 1486 1486 1485 1483 1482 1480